N661TT KPDK-KEZM

Flight info

Callsign N661TT
Flight time 0h 48m
Altitude 13000
Route SOONE NOKIE
Aircraft S22T/L-SDGRY/S

Departure

Time 2026-05-03 23:28
Airport DeKalb Peachtree Airport (KPDK)

Arrival

Time 2026-05-04 00:17
Airport Heart of Georgia Regional Airport (KEZM)
Time Latitude Longitude Altitude Speed Heading
2026-05-03 23:14 33.87487 -84.30497 1001 ft 0 kts 318°
2026-05-03 23:23 33.87505 -84.30489 1000 ft 15 kts 71°
2026-05-03 23:23 33.87559 -84.30359 998 ft 19 kts 32°
2026-05-03 23:24 33.87698 -84.30289 995 ft 24 kts 25°
2026-05-03 23:24 33.87856 -84.30218 997 ft 24 kts 18°
2026-05-03 23:24 33.88012 -84.30150 994 ft 22 kts 23°
2026-05-03 23:24 33.88165 -84.30081 993 ft 23 kts 19°
2026-05-03 23:25 33.88175 -84.29936 994 ft 16 kts 108°
2026-05-03 23:25 33.88167 -84.29909 994 ft 0 kts 109°
2026-05-03 23:27 33.88156 -84.29874 993 ft 15 kts 113°
2026-05-03 23:28 33.88039 -84.29870 996 ft 42 kts 200°
2026-05-03 23:28 33.87547 -84.30068 1088 ft 91 kts 202°
2026-05-03 23:28 33.86864 -84.30329 1360 ft 111 kts 205°
2026-05-03 23:28 33.86103 -84.30688 1734 ft 114 kts 224°
2026-05-03 23:29 33.85849 -84.31491 2160 ft 105 kts 268°
2026-05-03 23:29 33.85755 -84.32362 2502 ft 108 kts 263°
2026-05-03 23:29 33.85644 -84.33245 2911 ft 107 kts 264°
2026-05-03 23:29 33.85529 -84.34211 3015 ft 129 kts 263°
2026-05-03 23:30 33.85418 -84.35268 3372 ft 128 kts 263°
2026-05-03 23:30 33.85304 -84.36318 3738 ft 125 kts 264°
2026-05-03 23:30 33.85191 -84.37374 4033 ft 130 kts 263°
2026-05-03 23:30 33.85083 -84.38464 4347 ft 132 kts 265°
2026-05-03 23:31 33.84971 -84.39545 4720 ft 130 kts 263°
2026-05-03 23:31 33.84858 -84.40634 5065 ft 130 kts 264°
2026-05-03 23:31 33.84727 -84.41710 5431 ft 130 kts 263°
2026-05-03 23:31 33.84597 -84.42805 5747 ft 134 kts 265°
2026-05-03 23:32 33.84456 -84.43927 5979 ft 143 kts 263°
2026-05-03 23:32 33.84286 -84.45182 6011 ft 160 kts 256°
2026-05-03 23:32 33.83566 -84.46240 6068 ft 173 kts 210°
2026-05-03 23:32 33.82370 -84.46401 6221 ft 179 kts 173°
2026-05-03 23:33 33.81141 -84.46149 6360 ft 179 kts 170°
2026-05-03 23:33 33.79990 -84.45598 6479 ft 182 kts 152°
2026-05-03 23:33 33.78866 -84.44908 6619 ft 182 kts 154°
2026-05-03 23:33 33.77723 -84.44231 6727 ft 183 kts 154°
2026-05-03 23:34 33.76602 -84.43561 6975 ft 176 kts 154°
2026-05-03 23:34 33.75523 -84.42913 7257 ft 170 kts 154°
2026-05-03 23:34 33.74475 -84.42283 7543 ft 167 kts 154°
2026-05-03 23:34 33.73440 -84.41655 7830 ft 166 kts 154°
2026-05-03 23:35 33.72413 -84.41026 8124 ft 165 kts 154°
2026-05-03 23:35 33.71391 -84.40397 8419 ft 165 kts 153°
2026-05-03 23:35 33.70369 -84.39767 8719 ft 165 kts 154°
2026-05-03 23:35 33.69345 -84.39140 9020 ft 165 kts 158°
2026-05-03 23:36 33.68242 -84.38878 9309 ft 163 kts 184°
2026-05-03 23:36 33.67141 -84.39182 9616 ft 160 kts 204°
2026-05-03 23:36 33.66112 -84.39643 9927 ft 160 kts 205°
2026-05-03 23:36 33.65068 -84.40113 10217 ft 161 kts 205°
2026-05-03 23:37 33.64019 -84.40581 10502 ft 161 kts 205°
2026-05-03 23:37 33.62966 -84.41049 10789 ft 161 kts 204°
2026-05-03 23:37 33.61904 -84.41491 11083 ft 162 kts 202°
2026-05-03 23:37 33.60824 -84.41893 11374 ft 163 kts 201°
2026-05-03 23:38 33.59704 -84.42132 11666 ft 169 kts 176°
2026-05-03 23:38 33.58652 -84.41489 11974 ft 173 kts 143°
2026-05-03 23:38 33.57697 -84.40602 12278 ft 174 kts 144°
2026-05-03 23:38 33.56738 -84.39712 12583 ft 175 kts 144°
2026-05-03 23:39 33.55778 -84.38816 12892 ft 175 kts 144°
2026-05-03 23:39 33.54793 -84.37888 12998 ft 186 kts 144°
2026-05-03 23:39 33.53767 -84.36927 13030 ft 192 kts 144°
2026-05-03 23:39 33.52694 -84.35920 13030 ft 198 kts 144°
2026-05-03 23:40 33.51593 -84.34888 13034 ft 201 kts 144°
2026-05-03 23:40 33.50483 -84.33850 13035 ft 203 kts 144°
2026-05-03 23:40 33.49360 -84.32803 13035 ft 205 kts 144°
2026-05-03 23:40 33.48235 -84.31754 13036 ft 206 kts 144°
2026-05-03 23:41 33.47107 -84.30700 13038 ft 206 kts 144°
2026-05-03 23:41 33.45975 -84.29641 13036 ft 206 kts 144°
2026-05-03 23:41 33.44857 -84.28595 13035 ft 207 kts 144°
2026-05-03 23:41 33.43726 -84.27534 13036 ft 207 kts 144°
2026-05-03 23:42 33.42595 -84.26472 13035 ft 206 kts 144°
2026-05-03 23:42 33.41460 -84.25414 13034 ft 206 kts 146°
2026-05-03 23:42 33.40227 -84.24557 13024 ft 204 kts 160°
2026-05-03 23:42 33.38869 -84.24183 13019 ft 199 kts 178°
2026-05-03 23:43 33.37488 -84.24066 13019 ft 199 kts 180°
2026-05-03 23:43 33.36107 -84.23920 13019 ft 199 kts 178°
2026-05-03 23:43 33.34728 -84.23757 13021 ft 199 kts 178°
2026-05-03 23:43 33.33354 -84.23599 13022 ft 199 kts 178°
2026-05-03 23:44 33.31979 -84.23435 13022 ft 199 kts 178°
2026-05-03 23:44 33.30600 -84.23268 13021 ft 199 kts 178°
2026-05-03 23:44 33.29226 -84.23100 13020 ft 199 kts 178°
2026-05-03 23:44 33.27849 -84.22934 13019 ft 199 kts 178°
2026-05-03 23:45 33.26472 -84.22766 13014 ft 199 kts 178°
2026-05-03 23:45 33.25096 -84.22599 13013 ft 199 kts 178°
2026-05-03 23:45 33.23717 -84.22434 13013 ft 199 kts 178°
2026-05-03 23:45 33.22340 -84.22267 13013 ft 199 kts 178°
2026-05-03 23:46 33.20978 -84.22104 13013 ft 199 kts 178°
2026-05-03 23:46 33.19582 -84.21936 13013 ft 199 kts 178°
2026-05-03 23:46 33.18219 -84.21771 13011 ft 199 kts 178°
2026-05-03 23:46 33.16839 -84.21604 13010 ft 199 kts 178°
2026-05-03 23:47 33.15459 -84.21439 13008 ft 199 kts 178°
2026-05-03 23:47 33.14075 -84.21272 13005 ft 199 kts 178°
2026-05-03 23:47 33.12696 -84.21106 13002 ft 199 kts 178°
2026-05-03 23:47 33.11317 -84.20940 13001 ft 199 kts 178°
2026-05-03 23:48 33.09935 -84.20774 12994 ft 199 kts 178°
2026-05-03 23:48 33.08561 -84.20524 12991 ft 202 kts 166°
2026-05-03 23:48 33.07314 -84.19724 12991 ft 206 kts 144°
2026-05-03 23:48 33.06340 -84.18467 12992 ft 207 kts 129°
2026-05-03 23:49 33.05431 -84.17133 12997 ft 208 kts 130°
2026-05-03 23:49 33.04510 -84.15803 13010 ft 208 kts 130°
2026-05-03 23:49 33.03603 -84.14490 13009 ft 208 kts 130°
2026-05-03 23:49 33.02688 -84.13156 13009 ft 208 kts 130°
2026-05-03 23:50 33.01772 -84.11826 13000 ft 207 kts 130°
2026-05-03 23:50 33.01164 -84.10943 12999 ft 208 kts 130°
2026-05-03 23:50 32.99939 -84.09163 12998 ft 207 kts 130°
2026-05-03 23:50 32.99021 -84.07830 12997 ft 208 kts 130°
2026-05-03 23:51 32.98106 -84.06501 12998 ft 208 kts 130°
2026-05-03 23:51 32.97188 -84.05171 12996 ft 208 kts 130°
2026-05-03 23:51 32.96279 -84.03854 12997 ft 208 kts 130°
2026-05-03 23:51 32.95363 -84.02524 12994 ft 208 kts 130°
2026-05-03 23:52 32.94443 -84.01193 12994 ft 208 kts 130°
2026-05-03 23:52 32.93527 -83.99865 12994 ft 208 kts 130°
2026-05-03 23:52 32.92609 -83.98535 12993 ft 208 kts 130°
2026-05-03 23:52 32.91692 -83.97208 12991 ft 208 kts 130°
2026-05-03 23:53 32.90775 -83.95881 12994 ft 208 kts 130°
2026-05-03 23:53 32.89856 -83.94553 12993 ft 207 kts 130°
2026-05-03 23:53 32.88941 -83.93228 12991 ft 207 kts 130°
2026-05-03 23:53 32.88024 -83.91904 12987 ft 207 kts 130°
2026-05-03 23:54 32.87106 -83.90576 12989 ft 207 kts 131°
2026-05-03 23:54 32.86189 -83.89254 12987 ft 207 kts 131°
2026-05-03 23:54 32.85271 -83.87929 12987 ft 207 kts 131°
2026-05-03 23:54 32.84366 -83.86620 12986 ft 208 kts 131°
2026-05-03 23:55 32.83446 -83.85295 12988 ft 208 kts 131°
2026-05-03 23:55 32.82528 -83.83970 12988 ft 208 kts 131°
2026-05-03 23:55 32.81610 -83.82647 12989 ft 208 kts 131°
2026-05-03 23:55 32.80690 -83.81320 12988 ft 208 kts 131°
2026-05-03 23:56 32.79769 -83.79995 12986 ft 208 kts 131°
2026-05-03 23:56 32.78851 -83.78670 12985 ft 208 kts 131°
2026-05-03 23:56 32.77928 -83.77344 12985 ft 207 kts 131°
2026-05-03 23:56 32.77011 -83.76023 12985 ft 207 kts 131°
2026-05-03 23:57 32.76092 -83.74700 12985 ft 207 kts 131°
2026-05-03 23:57 32.75174 -83.73380 12994 ft 207 kts 131°
2026-05-03 23:57 32.74254 -83.72059 12993 ft 208 kts 131°
2026-05-03 23:57 32.73332 -83.70732 12993 ft 208 kts 131°
2026-05-03 23:58 32.72409 -83.69409 12993 ft 208 kts 131°
2026-05-03 23:58 32.71489 -83.68086 12993 ft 208 kts 131°
2026-05-03 23:58 32.70568 -83.66764 12992 ft 208 kts 131°
2026-05-03 23:58 32.69646 -83.65440 12992 ft 208 kts 131°
2026-05-03 23:59 32.68676 -83.64175 12993 ft 207 kts 139°
2026-05-03 23:59 32.67612 -83.63027 12992 ft 207 kts 140°
2026-05-03 23:59 32.66552 -83.61873 12983 ft 207 kts 139°
2026-05-03 23:59 32.65495 -83.60712 12984 ft 207 kts 139°
2026-05-04 00:00 32.64440 -83.59550 12982 ft 207 kts 139°
2026-05-04 00:00 32.63383 -83.58389 12982 ft 207 kts 139°
2026-05-04 00:00 32.62325 -83.57228 12981 ft 207 kts 139°
2026-05-04 00:00 32.61266 -83.56065 12981 ft 207 kts 139°
2026-05-04 00:01 32.60221 -83.54919 12985 ft 207 kts 139°
2026-05-04 00:01 32.59150 -83.53744 12985 ft 207 kts 139°
2026-05-04 00:01 32.58092 -83.52583 12985 ft 207 kts 140°
2026-05-04 00:01 32.57392 -83.51816 12985 ft 207 kts 140°
2026-05-04 00:02 32.55993 -83.50284 12985 ft 207 kts 140°
2026-05-04 00:02 32.54936 -83.49128 12986 ft 207 kts 140°
2026-05-04 00:02 32.53869 -83.47962 12872 ft 210 kts 140°
2026-05-04 00:02 32.53143 -83.47174 12732 ft 209 kts 140°
2026-05-04 00:03 32.52093 -83.46028 12532 ft 207 kts 140°
2026-05-04 00:03 32.51037 -83.44871 12327 ft 206 kts 139°
2026-05-04 00:03 32.49986 -83.43719 12130 ft 205 kts 139°
2026-05-04 00:03 32.48939 -83.42574 11930 ft 204 kts 139°
2026-05-04 00:04 32.47894 -83.41432 11730 ft 204 kts 139°
2026-05-04 00:04 32.46853 -83.40295 11532 ft 204 kts 139°
2026-05-04 00:04 32.45813 -83.39158 11327 ft 203 kts 139°
2026-05-04 00:04 32.44778 -83.38029 11141 ft 202 kts 139°
2026-05-04 00:05 32.43658 -83.37089 11023 ft 194 kts 161°
2026-05-04 00:05 32.42357 -83.36633 10740 ft 199 kts 169°
2026-05-04 00:05 32.40997 -83.36205 10397 ft 205 kts 167°
2026-05-04 00:05 32.39625 -83.35676 10063 ft 209 kts 163°
2026-05-04 00:06 32.38253 -83.35091 9691 ft 210 kts 163°
2026-05-04 00:06 32.36880 -83.34511 9338 ft 209 kts 163°
2026-05-04 00:06 32.35513 -83.33940 8993 ft 208 kts 163°
2026-05-04 00:06 32.34152 -83.33375 8666 ft 206 kts 162°
2026-05-04 00:07 32.32818 -83.32819 8333 ft 205 kts 162°
2026-05-04 00:07 32.31476 -83.32260 7997 ft 204 kts 162°
2026-05-04 00:07 32.30143 -83.31705 7662 ft 202 kts 162°
2026-05-04 00:07 32.28821 -83.31154 7331 ft 201 kts 162°
2026-05-04 00:08 32.27505 -83.30608 7013 ft 199 kts 161°
2026-05-04 00:08 32.26213 -83.30063 6749 ft 195 kts 161°
2026-05-04 00:08 32.24943 -83.29539 6488 ft 192 kts 161°
2026-05-04 00:08 32.23687 -83.29019 6201 ft 190 kts 161°
2026-05-04 00:09 32.22444 -83.28504 5921 ft 188 kts 161°
2026-05-04 00:09 32.21211 -83.27990 5623 ft 188 kts 161°
2026-05-04 00:09 32.19977 -83.27477 5306 ft 188 kts 162°
2026-05-04 00:09 32.18759 -83.26972 4995 ft 187 kts 162°
2026-05-04 00:10 32.17535 -83.26464 4693 ft 185 kts 162°
2026-05-04 00:10 32.16344 -83.25970 4501 ft 178 kts 161°
2026-05-04 00:10 32.15193 -83.25490 4307 ft 175 kts 161°
2026-05-04 00:10 32.14034 -83.25010 3987 ft 178 kts 161°
2026-05-04 00:11 32.12854 -83.24521 3635 ft 181 kts 161°
2026-05-04 00:11 32.11666 -83.24031 3324 ft 180 kts 161°
2026-05-04 00:11 32.10490 -83.23541 3063 ft 177 kts 161°
2026-05-04 00:11 32.09337 -83.23050 2799 ft 176 kts 158°
2026-05-04 00:12 32.08366 -83.22187 2504 ft 177 kts 130°
2026-05-04 00:12 32.07913 -83.20855 2183 ft 179 kts 92°
2026-05-04 00:12 32.08290 -83.19509 2024 ft 169 kts 55°
2026-05-04 00:12 32.08945 -83.18415 2018 ft 159 kts 54°
2026-05-04 00:13 32.09574 -83.17363 2015 ft 159 kts 52°
2026-05-04 00:13 32.10444 -83.16615 2018 ft 155 kts 19°
2026-05-04 00:13 32.11471 -83.16212 2018 ft 156 kts 17°
2026-05-04 00:13 32.12498 -83.15844 1986 ft 153 kts 14°
2026-05-04 00:14 32.13500 -83.15498 1809 ft 143 kts 14°
2026-05-04 00:14 32.14424 -83.15208 1619 ft 133 kts 14°
2026-05-04 00:14 32.15303 -83.14923 1442 ft 129 kts 14°
2026-05-04 00:14 32.16126 -83.14653 1282 ft 112 kts 14°
2026-05-04 00:15 32.16844 -83.14420 1135 ft 103 kts 14°
2026-05-04 00:15 32.17519 -83.14205 1001 ft 99 kts 14°
2026-05-04 00:15 32.18168 -83.13998 877 ft 97 kts 14°
2026-05-04 00:15 32.18812 -83.13784 747 ft 96 kts 14°
2026-05-04 00:16 32.19447 -83.13580 617 ft 93 kts 15°
2026-05-04 00:16 32.20059 -83.13381 485 ft 89 kts 16°
2026-05-04 00:16 32.20642 -83.13192 374 ft 85 kts 14°
2026-05-04 00:16 32.21172 -83.13022 305 ft 69 kts 14°
2026-05-04 00:17 32.21439 -83.12927 308 ft 9 kts 30°
2026-05-04 00:17 32.21402 -83.12892 307 ft 18 kts 106°
2026-05-04 00:17 32.21365 -83.12738 307 ft 21 kts 107°
2026-05-04 00:17 32.21294 -83.12701 307 ft 7 kts 345°
2026-05-04 00:18 32.21306 -83.12702 307 ft 0 kts 356°